Location: Drocourt
(49.0571°N, 1.7669°E)
Time: 23:43:42
(UTC+00:00)

SR - Pass Details

Date: 14 April 2024
Orbit: 579 x 859 km, 66.7° (Epoch: 25 May)

Event Time Altitude Azimuth Distance (km) Brightness Sun altitude
Rises 10:11:33 0° 327° (NNW) 3,074 ? 45.3°
Reaches altitude 10° 10:14:16 10° 339° (NNW) 2,104 ? 45.5°
Maximum altitude 10:18:19 28° 38° (NE) 1,214 ? 45.9°
Drops below altitude 10° 10:22:08 10° 98° (E) 1,968 ? 46.3°
Sets 10:24:35 0° 111° (ESE) 2,839 ? 46.5°
